Regional Weather Roundup
Issued by NWS

Home | Current Version | Previous Version | Graphics & Text | Print | Product List | Glossary On
Versions: 1 2 3 4 5 6 7 8 9 10 11 12 13 14 15 16 17 18 19 20 21 22 23 24 25 26 27 28 29 30 31 32 33 34 35 36 37 38 39 40 41 42 43 44 45 46 47 48 49 50
000
ASUS43 KBIS 200410
RWRND

NORTH DAKOTA REGIONAL WEATHER ROUNDUP
NATIONAL WEATHER SERVICE BISMARCK ND
1100 PM CDT WED JUL 19 2017

NOTE: "FAIR" INDICATES FEW OR NO CLOUDS BELOW 12,000 FEET WITH NO
SIGNIFICANT WEATHER AND/OR OBSTRUCTIONS TO VISIBILITY.


NDZ001>003-009>011-017-200500-
NORTHWEST NORTH DAKOTA

CITY           SKY/WX    TMP DP  RH WIND       PRES   REMARKS
WILLISTON      CLEAR     76  53  44 NE9       29.94R
MINOT          PTCLDY    70  60  70 E3        29.96R
MINOT AFB      PTCLDY    66  58  77 CALM      29.95R
$$

NDZ018>021-031>035-040>046-200500-
SOUTHWEST NORTH DAKOTA

CITY           SKY/WX    TMP DP  RH WIND       PRES   REMARKS
BISMARCK       CLEAR     69  64  84 CALM      29.97R
DICKINSON      CLEAR     67  59  75 S8        29.99R
GARRISON         N/A     72  61  68 CALM      29.96R
HETTINGER ARPT CLEAR     67  58  72 CALM      30.05R
$$

NDZ004>008-012>016-024-026-027-054-200500-
NORTHEAST NORTH DAKOTA

CITY           SKY/WX    TMP DP  RH WIND       PRES   REMARKS
GRAND FORKS    CLEAR     69  66  90 N8        29.90R
GRND FRKS AFB  CLEAR     66  64  94 N7        29.91R
DEVILS LAKE    CLEAR     69  65  86 CALM      29.96R
$$

NDZ022-023-025-028>030-036>039-047>053-200500-
SOUTHEAST NORTH DAKOTA

CITY           SKY/WX    TMP DP  RH WIND       PRES   REMARKS
FARGO          CLEAR     73  68  84 S8        29.91R
JAMESTOWN      CLEAR     70  64  81 S6        29.95R
$$





USA.gov is the U.S. government's official web portal to all federal, state and local government web resources and services.